Time,TemperatureF,DewpointF,PressureIn,WindDirection,WindDirectionDegrees,WindSpeedMPH,WindSpeedGustMPH,Humidity,HourlyPrecipIn,Conditions,Clouds,dailyrainin,SoftwareType,DateUTC
2013-05-16 00:00:00,73.8,69.4,29.83,South,169,6.0,11.0,86,0.00,,SKC,0.00,VWS V14.01,2013-05-16 05:00:00,
2013-05-16 00:01:00,73.8,69.3,29.83,SSE,150,0.0,10.0,86,0.00,,SKC,0.00,VWS V14.01,2013-05-16 05:01:00,
2013-05-16 00:06:00,73.7,69.3,29.82,South,178,5.0,14.0,86,0.00,,SKC,0.00,VWS V14.01,2013-05-16 05:06:00,
2013-05-16 00:10:00,73.7,69.3,29.82,South,180,4.0,14.0,86,0.00,,SKC,0.00,VWS V14.01,2013-05-16 05:10:00,
2013-05-16 00:11:00,73.7,69.3,29.82,South,171,0.0,12.0,86,0.00,,SKC,0.00,VWS V14.01,2013-05-16 05:11:00,
2013-05-16 00:16:00,73.7,69.3,29.82,SSW,197,5.0,17.0,86,0.00,,SKC,0.00,VWS V14.01,2013-05-16 05:16:00,
2013-05-16 00:20:00,73.7,69.3,29.82,SSE,157,5.0,17.0,86,0.00,,SKC,0.00,VWS V14.01,2013-05-16 05:20:00,
2013-05-16 00:21:00,73.7,69.3,29.82,South,177,6.0,11.0,86,0.00,,SKC,0.00,VWS V14.01,2013-05-16 05:21:00,
2013-05-16 00:25:00,73.6,69.2,29.82,ESE,121,5.0,14.0,86,0.00,,SKC,0.00,VWS V14.01,2013-05-16 05:25:00,
2013-05-16 00:30:00,73.6,69.2,29.82,SSE,154,0.0,11.0,86,0.00,,SKC,0.00,VWS V14.01,2013-05-16 05:30:00,
2013-05-16 00:35:00,73.6,69.2,29.82,SSE,166,3.0,11.0,86,0.00,,SKC,0.00,VWS V14.01,2013-05-16 05:35:00,
2013-05-16 00:40:00,73.6,69.2,29.82,SSE,166,3.0,14.0,86,0.00,,SKC,0.00,VWS V14.01,2013-05-16 05:40:00,
2013-05-16 00:45:00,73.5,69.1,29.82,SSE,153,4.0,14.0,86,0.00,,SKC,0.00,VWS V14.01,2013-05-16 05:45:00,
2013-05-16 00:50:00,73.5,69.1,29.82,SSE,157,5.0,9.0,86,0.00,,SKC,0.00,VWS V14.01,2013-05-16 05:50:00,
2013-05-16 00:55:00,73.5,69.1,29.82,SSW,192,1.0,9.0,86,0.00,,SKC,0.00,VWS V14.01,2013-05-16 05:55:00,
2013-05-16 01:00:00,73.5,69.1,29.83,SSE,154,0.0,8.0,86,0.00,,SKC,0.00,VWS V14.01,2013-05-16 06:00:00,
2013-05-16 01:05:00,73.4,69.0,29.83,SSE,167,0.0,11.0,86,0.00,,SKC,0.00,VWS V14.01,2013-05-16 06:05:00,
2013-05-16 01:10:00,73.4,69.0,29.83,South,171,0.0,11.0,86,0.00,,SKC,0.00,VWS V14.01,2013-05-16 06:10:00,
2013-05-16 01:15:00,73.3,68.9,29.82,South,171,5.0,11.0,86,0.00,,SKC,0.00,VWS V14.01,2013-05-16 06:15:00,
2013-05-16 01:20:00,73.3,68.9,29.82,SSE,153,5.0,12.0,86,0.00,,SKC,0.00,VWS V14.01,2013-05-16 06:20:00,
2013-05-16 01:25:00,73.2,68.8,29.82,SSE,157,0.0,12.0,86,0.00,,SKC,0.00,VWS V14.01,2013-05-16 06:25:00,
2013-05-16 01:30:00,73.2,69.1,29.82,SSE,151,0.0,9.0,87,0.00,,SKC,0.00,VWS V14.01,2013-05-16 06:30:00,
2013-05-16 01:35:00,73.1,69.0,29.82,SSE,156,5.0,14.0,87,0.00,,SKC,0.00,VWS V14.01,2013-05-16 06:35:00,
2013-05-16 01:40:00,73.1,68.7,29.82,SSE,167,6.0,10.0,86,0.00,,SKC,0.00,VWS V14.01,2013-05-16 06:40:00,
2013-05-16 01:45:00,73.0,68.6,29.82,South,176,3.0,11.0,86,0.00,,SKC,0.00,VWS V14.01,2013-05-16 06:45:00,
2013-05-16 01:50:00,72.9,68.8,29.82,SSE,157,0.0,10.0,87,0.00,,SKC,0.00,VWS V14.01,2013-05-16 06:50:00,
2013-05-16 01:55:00,72.9,68.8,29.82,SSE,159,3.0,10.0,87,0.00,,SKC,0.00,VWS V14.01,2013-05-16 06:55:00,
2013-05-16 02:00:00,72.8,68.7,29.81,SSE,167,1.0,7.0,87,0.00,,SKC,0.00,VWS V14.01,2013-05-16 07:00:00,
2013-05-16 02:05:00,72.7,68.6,29.81,South,176,0.0,12.0,87,0.00,,SKC,0.00,VWS V14.01,2013-05-16 07:05:00,
2013-05-16 02:10:00,72.7,68.6,29.81,SSE,161,0.0,11.0,87,0.00,,SKC,0.00,VWS V14.01,2013-05-16 07:10:00,
2013-05-16 02:15:00,72.6,68.5,29.81,SSE,161,0.0,11.0,87,0.00,,SKC,0.00,VWS V14.01,2013-05-16 07:15:00,
2013-05-16 02:20:00,72.6,68.5,29.80,SSE,155,0.0,7.0,87,0.00,,SKC,0.00,VWS V14.01,2013-05-16 07:20:00,
2013-05-16 02:25:00,72.6,68.5,29.80,SSW,204,0.0,10.0,87,0.00,,SKC,0.00,VWS V14.01,2013-05-16 07:25:00,
2013-05-16 02:30:00,72.5,68.4,29.81,South,169,1.0,10.0,87,0.00,,SKC,0.00,VWS V14.01,2013-05-16 07:30:00,
2013-05-16 02:35:00,72.4,68.3,29.81,SSE,162,4.0,10.0,87,0.00,,SKC,0.00,VWS V14.01,2013-05-16 07:35:00,
2013-05-16 02:40:00,72.4,68.7,29.81,SSW,199,4.0,8.0,88,0.00,,SKC,0.00,VWS V14.01,2013-05-16 07:40:00,
2013-05-16 02:45:00,72.3,68.6,29.80,South,190,4.0,8.0,88,0.00,,SKC,0.00,VWS V14.01,2013-05-16 07:45:00,
2013-05-16 02:50:00,72.3,68.6,29.80,South,173,4.0,9.0,88,0.00,,SKC,0.00,VWS V14.01,2013-05-16 07:50:00,
2013-05-16 02:55:00,72.2,68.4,29.80,South,172,0.0,9.0,88,0.00,,SKC,0.00,VWS V14.01,2013-05-16 07:55:00,
2013-05-16 03:00:00,72.2,68.4,29.80,South,182,4.0,9.0,88,0.00,,SKC,0.00,VWS V14.01,2013-05-16 08:00:00,
2013-05-16 03:05:00,72.1,68.3,29.79,South,169,0.0,9.0,88,0.00,,SKC,0.00,VWS V14.01,2013-05-16 08:05:00,
2013-05-16 03:10:00,72.1,68.3,29.80,SSW,200,5.0,9.0,88,0.00,,SKC,0.00,VWS V14.01,2013-05-16 08:10:00,
2013-05-16 03:15:00,72.1,68.3,29.79,SSW,198,5.0,9.0,88,0.00,,SKC,0.00,VWS V14.01,2013-05-16 08:15:00,
2013-05-16 03:20:00,72.1,68.3,29.80,SSW,203,0.0,7.0,88,0.00,,SKC,0.00,VWS V14.01,2013-05-16 08:20:00,
2013-05-16 03:25:00,72.1,68.3,29.79,SSW,199,0.0,7.0,88,0.00,,SKC,0.00,VWS V14.01,2013-05-16 08:25:00,
2013-05-16 03:30:00,72.0,68.3,29.80,SSE,166,0.0,10.0,88,0.00,,SKC,0.00,VWS V14.01,2013-05-16 08:30:00,
2013-05-16 03:35:00,72.0,68.3,29.79,SSE,157,3.0,10.0,88,0.00,,SKC,0.00,VWS V14.01,2013-05-16 08:35:00,
2013-05-16 03:40:00,72.0,68.3,29.79,SSE,157,0.0,6.0,88,0.00,,SKC,0.00,VWS V14.01,2013-05-16 08:40:00,
2013-05-16 03:45:00,72.0,68.3,29.79,SSE,159,5.0,6.0,88,0.00,,SKC,0.00,VWS V14.01,2013-05-16 08:45:00,
2013-05-16 03:50:00,72.0,68.3,29.79,SSW,193,0.0,15.0,88,0.00,,SKC,0.00,VWS V14.01,2013-05-16 08:50:00,
2013-05-16 03:55:00,72.0,68.3,29.79,South,182,0.0,15.0,88,0.00,,SKC,0.00,VWS V14.01,2013-05-16 08:55:00,
2013-05-16 04:00:00,72.0,68.3,29.79,SSW,193,0.0,9.0,88,0.00,,SKC,0.00,VWS V14.01,2013-05-16 09:00:00,
2013-05-16 04:05:00,72.1,68.3,29.79,South,181,4.0,9.0,88,0.00,,SKC,0.00,VWS V14.01,2013-05-16 09:05:00,
2013-05-16 04:10:00,72.0,68.3,29.79,South,185,0.0,8.0,88,0.00,,SKC,0.00,VWS V14.01,2013-05-16 09:10:00,
2013-05-16 04:15:00,72.0,68.3,29.79,South,170,0.0,8.0,88,0.00,,SKC,0.00,VWS V14.01,2013-05-16 09:15:00,
2013-05-16 04:20:00,72.1,68.3,29.78,South,170,0.0,7.0,88,0.00,,SKC,0.00,VWS V14.01,2013-05-16 09:20:00,
2013-05-16 04:25:00,72.1,68.3,29.79,South,171,0.0,7.0,88,0.00,,SKC,0.00,VWS V14.01,2013-05-16 09:25:00,
2013-05-16 04:30:00,72.1,68.3,29.79,South,170,0.0,7.0,88,0.00,,SKC,0.00,VWS V14.01,2013-05-16 09:30:00,
2013-05-16 04:35:00,72.1,68.3,29.79,SSE,167,0.0,7.0,88,0.00,,SKC,0.00,VWS V14.01,2013-05-16 09:35:00,
2013-05-16 04:40:00,72.1,68.3,29.79,South,169,0.0,7.0,88,0.00,,SKC,0.00,VWS V14.01,2013-05-16 09:40:00,
2013-05-16 04:45:00,72.1,68.0,29.80,South,169,0.0,7.0,87,0.00,,SKC,0.00,VWS V14.01,2013-05-16 09:45:00,
2013-05-16 04:50:00,72.1,68.0,29.80,South,169,0.0,4.0,87,0.00,,SKC,0.00,VWS V14.01,2013-05-16 09:50:00,
2013-05-16 04:55:00,72.2,68.1,29.81,South,169,0.0,7.0,87,0.00,,SKC,0.00,VWS V14.01,2013-05-16 09:55:00,
2013-05-16 05:00:00,72.2,68.1,29.81,South,169,0.0,1.0,87,0.00,,SKC,0.00,VWS V14.01,2013-05-16 10:00:00,
2013-05-16 05:05:00,72.2,68.1,29.81,South,169,0.0,4.0,87,0.00,,SKC,0.00,VWS V14.01,2013-05-16 10:05:00,
2013-05-16 05:10:00,72.3,68.2,29.81,South,169,0.0,4.0,87,0.00,,SKC,0.00,VWS V14.01,2013-05-16 10:10:00,
2013-05-16 05:15:00,72.3,68.2,29.81,South,169,0.0,4.0,87,0.00,,SKC,0.00,VWS V14.01,2013-05-16 10:15:00,
2013-05-16 05:20:00,72.3,68.2,29.81,South,169,0.0,1.0,87,0.00,,SKC,0.00,VWS V14.01,2013-05-16 10:20:00,
2013-05-16 05:25:00,72.2,67.8,29.80,South,169,0.0,1.0,86,0.00,,SKC,0.00,VWS V14.01,2013-05-16 10:25:00,
2013-05-16 05:30:00,72.2,67.8,29.81,South,169,0.0,7.0,86,0.00,,SKC,0.00,VWS V14.01,2013-05-16 10:30:00,
2013-05-16 05:35:00,72.2,67.8,29.81,South,169,1.0,7.0,86,0.00,,SKC,0.00,VWS V14.01,2013-05-16 10:35:00,
2013-05-16 05:40:00,72.2,67.8,29.81,South,169,0.0,0.0,86,0.00,,SKC,0.00,VWS V14.01,2013-05-16 10:40:00,
2013-05-16 05:45:00,72.2,67.8,29.81,South,169,0.0,0.0,86,0.00,,SKC,0.00,VWS V14.01,2013-05-16 10:45:00,
2013-05-16 05:50:00,72.2,67.8,29.81,South,169,0.0,1.0,86,0.00,,SKC,0.00,VWS V14.01,2013-05-16 10:50:00,
2013-05-16 05:55:00,72.2,67.8,29.81,SSE,166,0.0,6.0,86,0.00,,SKC,0.00,VWS V14.01,2013-05-16 10:55:00,
2013-05-16 06:00:00,72.1,67.7,29.81,SSE,166,0.0,6.0,86,0.00,,SKC,0.00,VWS V14.01,2013-05-16 11:00:00,
2013-05-16 06:05:00,72.1,67.7,29.80,SSE,166,0.0,6.0,86,0.00,,SKC,0.00,VWS V14.01,2013-05-16 11:05:00,
2013-05-16 06:10:00,72.1,67.7,29.80,SSE,166,0.0,8.0,86,0.00,,SKC,0.00,VWS V14.01,2013-05-16 11:10:00,
2013-05-16 06:15:00,72.0,67.6,29.81,SSE,165,6.0,8.0,86,0.00,,SKC,0.00,VWS V14.01,2013-05-16 11:15:00,
2013-05-16 06:20:00,71.9,67.5,29.80,SSE,165,0.0,6.0,86,0.00,,SKC,0.00,VWS V14.01,2013-05-16 11:20:00,
2013-05-16 06:25:00,71.9,67.5,29.81,SSE,165,0.0,6.0,86,0.00,,SKC,0.00,VWS V14.01,2013-05-16 11:25:00,
2013-05-16 06:30:00,71.9,67.5,29.81,SSE,165,0.0,2.0,86,0.00,,SKC,0.00,VWS V14.01,2013-05-16 11:30:00,
2013-05-16 06:35:00,71.8,67.4,29.81,SSE,165,0.0,4.0,86,0.00,,SKC,0.00,VWS V14.01,2013-05-16 11:35:00,
2013-05-16 06:40:00,71.8,67.4,29.81,SSE,164,0.0,6.0,86,0.00,,SKC,0.00,VWS V14.01,2013-05-16 11:40:00,
2013-05-16 06:45:00,71.8,67.4,29.81,SSE,164,0.0,9.0,86,0.00,,SKC,0.00,VWS V14.01,2013-05-16 11:45:00,
2013-05-16 06:50:00,71.7,67.6,29.81,SSE,163,0.0,3.0,87,0.00,,SKC,0.00,VWS V14.01,2013-05-16 11:50:00,
2013-05-16 06:55:00,71.7,67.6,29.81,SE,144,0.0,4.0,87,0.00,,SKC,0.00,VWS V14.01,2013-05-16 11:55:00,
2013-05-16 07:00:00,71.6,67.5,29.81,SE,144,0.0,1.0,87,0.00,,SKC,0.00,VWS V14.01,2013-05-16 12:00:00,
2013-05-16 07:05:00,71.5,67.4,29.81,SE,144,0.0,1.0,87,0.00,,SKC,0.00,VWS V14.01,2013-05-16 12:05:00,
2013-05-16 07:10:00,71.5,67.4,29.81,SE,144,0.0,4.0,87,0.00,,SKC,0.00,VWS V14.01,2013-05-16 12:10:00,
2013-05-16 07:15:00,71.4,67.7,29.81,SE,144,0.0,4.0,88,0.00,,SKC,0.00,VWS V14.01,2013-05-16 12:15:00,
2013-05-16 07:20:00,71.4,67.7,29.81,SE,144,0.0,5.0,88,0.00,,SKC,0.00,VWS V14.01,2013-05-16 12:20:00,
2013-05-16 07:25:00,71.3,67.6,29.81,SE,144,0.0,7.0,88,0.00,,SKC,0.00,VWS V14.01,2013-05-16 12:25:00,
2013-05-16 07:30:00,71.3,67.6,29.81,SE,145,0.0,7.0,88,0.00,,SKC,0.00,VWS V14.01,2013-05-16 12:30:00,
2013-05-16 07:35:00,71.3,67.6,29.81,SE,143,0.0,7.0,88,0.00,,SKC,0.00,VWS V14.01,2013-05-16 12:35:00,
2013-05-16 07:40:00,71.3,67.6,29.81,SE,144,0.0,1.0,88,0.00,,SKC,0.00,VWS V14.01,2013-05-16 12:40:00,
2013-05-16 07:45:00,71.3,67.6,29.81,SSE,147,4.0,8.0,88,0.00,,SKC,0.00,VWS V14.01,2013-05-16 12:45:00,
2013-05-16 07:50:00,71.3,67.6,29.81,SE,142,0.0,6.0,88,0.00,,SKC,0.00,VWS V14.01,2013-05-16 12:50:00,
2013-05-16 07:55:00,71.3,67.6,29.81,SE,144,0.0,6.0,88,0.00,,SKC,0.00,VWS V14.01,2013-05-16 12:55:00,
2013-05-16 08:00:00,71.3,67.6,29.81,SE,146,0.0,7.0,88,0.00,,SKC,0.00,VWS V14.01,2013-05-16 13:00:00,
2013-05-16 08:05:00,71.3,67.6,29.82,SE,146,0.0,7.0,88,0.00,,SKC,0.00,VWS V14.01,2013-05-16 13:05:00,
2013-05-16 08:10:00,71.3,67.6,29.81,SSE,155,0.0,10.0,88,0.00,,SKC,0.00,VWS V14.01,2013-05-16 13:10:00,
2013-05-16 08:15:00,71.3,67.6,29.81,SE,140,2.0,10.0,88,0.00,,SKC,0.00,VWS V14.01,2013-05-16 13:15:00,
2013-05-16 08:20:00,71.3,67.6,29.81,SE,142,0.0,7.0,88,0.00,,SKC,0.00,VWS V14.01,2013-05-16 13:20:00,
2013-05-16 08:25:00,71.3,67.6,29.81,SE,142,0.0,7.0,88,0.00,,SKC,0.00,VWS V14.01,2013-05-16 13:25:00,
2013-05-16 08:30:00,71.4,67.7,29.81,SE,139,0.0,9.0,88,0.00,,SKC,0.00,VWS V14.01,2013-05-16 13:30:00,
2013-05-16 08:35:00,71.5,67.4,29.81,SE,142,0.0,10.0,87,0.00,,SKC,0.00,VWS V14.01,2013-05-16 13:35:00,
2013-05-16 08:40:00,71.5,67.4,29.81,SSE,159,0.0,10.0,87,0.00,,SKC,0.00,VWS V14.01,2013-05-16 13:40:00,
2013-05-16 08:45:00,71.6,67.5,29.81,SSE,161,8.0,12.0,87,0.00,,SKC,0.00,VWS V14.01,2013-05-16 13:45:00,
2013-05-16 08:50:00,71.7,67.6,29.81,SSE,167,0.0,9.0,87,0.00,,SKC,0.00,VWS V14.01,2013-05-16 13:50:00,
2013-05-16 08:55:00,71.8,67.7,29.81,SSE,167,2.0,10.0,87,0.00,,SKC,0.00,VWS V14.01,2013-05-16 13:55:00,
2013-05-16 09:00:00,71.9,67.8,29.81,SSE,168,11.0,11.0,87,0.00,,SKC,0.00,VWS V14.01,2013-05-16 14:00:00,
2013-05-16 09:05:00,72.0,67.9,29.81,SSE,165,6.0,11.0,87,0.00,,SKC,0.00,VWS V14.01,2013-05-16 14:05:00,
2013-05-16 09:10:00,72.1,67.7,29.81,SSE,165,0.0,8.0,86,0.00,,SKC,0.00,VWS V14.01,2013-05-16 14:10:00,
2013-05-16 09:15:00,72.2,67.8,29.81,SSE,165,2.0,10.0,86,0.00,,SKC,0.00,VWS V14.01,2013-05-16 14:15:00,
2013-05-16 09:20:00,72.3,67.9,29.81,SSE,168,4.0,10.0,86,0.00,,SKC,0.00,VWS V14.01,2013-05-16 14:20:00,
2013-05-16 09:25:00,72.4,68.0,29.82,SSE,165,0.0,10.0,86,0.00,,SKC,0.00,VWS V14.01,2013-05-16 14:25:00,
2013-05-16 09:30:00,72.4,68.0,29.82,SSE,165,1.0,8.0,86,0.00,,SKC,0.00,VWS V14.01,2013-05-16 14:30:00,
2013-05-16 09:35:00,72.5,68.1,29.82,South,169,1.0,9.0,86,0.00,,SKC,0.00,VWS V14.01,2013-05-16 14:35:00,
2013-05-16 09:40:00,72.6,68.2,29.81,SSE,166,8.0,11.0,86,0.00,,SKC,0.00,VWS V14.01,2013-05-16 14:40:00,
2013-05-16 09:45:00,72.6,68.2,29.81,SSE,164,0.0,11.0,86,0.00,,SKC,0.00,VWS V14.01,2013-05-16 14:45:00,
2013-05-16 09:50:00,72.7,67.9,29.82,SSE,163,0.0,9.0,85,0.00,,SKC,0.00,VWS V14.01,2013-05-16 14:50:00,
2013-05-16 09:55:00,72.8,68.0,29.81,South,171,0.0,9.0,85,0.00,,SKC,0.00,VWS V14.01,2013-05-16 14:55:00,
2013-05-16 10:00:00,73.0,68.2,29.81,SSE,155,5.0,11.0,85,0.00,,SKC,0.00,VWS V14.01,2013-05-16 15:00:00,
2013-05-16 10:05:00,73.1,68.3,29.81,SSE,161,8.0,11.0,85,0.00,,SKC,0.00,VWS V14.01,2013-05-16 15:05:00,
2013-05-16 10:10:00,73.3,68.5,29.81,SW,215,6.0,11.0,85,0.00,,SKC,0.00,VWS V14.01,2013-05-16 15:10:00,
2013-05-16 10:15:00,73.4,68.3,29.81,South,190,0.0,11.0,84,0.00,,SKC,0.00,VWS V14.01,2013-05-16 15:15:00,
2013-05-16 10:20:00,73.6,68.5,29.81,SSE,165,0.0,8.0,84,0.00,,SKC,0.00,VWS V14.01,2013-05-16 15:20:00,
2013-05-16 10:25:00,73.8,68.7,29.81,SSE,161,0.0,9.0,84,0.00,,SKC,0.00,VWS V14.01,2013-05-16 15:25:00,
2013-05-16 10:30:00,73.8,68.7,29.82,South,181,6.0,9.0,84,0.00,,SKC,0.00,VWS V14.01,2013-05-16 15:30:00,
2013-05-16 10:35:00,74.0,68.5,29.82,South,178,0.0,9.0,83,0.00,,SKC,0.00,VWS V14.01,2013-05-16 15:35:00,
2013-05-16 10:40:00,74.2,68.7,29.81,SSW,198,2.0,8.0,83,0.00,,SKC,0.00,VWS V14.01,2013-05-16 15:40:00,
2013-05-16 10:45:00,74.4,68.9,29.81,South,184,0.0,8.0,83,0.00,,SKC,0.00,VWS V14.01,2013-05-16 15:45:00,
2013-05-16 10:50:00,74.7,69.2,29.81,SSE,153,2.0,12.0,83,0.00,,SKC,0.00,VWS V14.01,2013-05-16 15:50:00,
2013-05-16 10:55:00,75.1,69.2,29.81,South,187,7.0,12.0,82,0.00,,SKC,0.00,VWS V14.01,2013-05-16 15:55:00,
2013-05-16 11:00:00,75.4,69.2,29.81,SSE,167,0.0,12.0,81,0.00,,SKC,0.00,VWS V14.01,2013-05-16 16:00:00,
2013-05-16 11:05:00,75.7,69.5,29.80,SSW,192,0.0,12.0,81,0.00,,SKC,0.00,VWS V14.01,2013-05-16 16:05:00,
2013-05-16 11:10:00,76.2,69.6,29.80,South,181,3.0,10.0,80,0.00,,SKC,0.00,VWS V14.01,2013-05-16 16:10:00,
2013-05-16 11:15:00,76.7,70.1,29.80,SSW,199,1.0,10.0,80,0.00,,SKC,0.00,VWS V14.01,2013-05-16 16:15:00,
2013-05-16 11:20:00,77.4,70.4,29.80,SSW,206,0.0,7.0,79,0.00,,SKC,0.00,VWS V14.01,2013-05-16 16:20:00,
2013-05-16 11:25:00,78.0,70.2,29.80,SSW,201,7.0,10.0,77,0.00,,SKC,0.00,VWS V14.01,2013-05-16 16:25:00,
2013-05-16 11:30:00,78.3,70.1,29.80,SSW,202,3.0,7.0,76,0.00,,SKC,0.00,VWS V14.01,2013-05-16 16:30:00,
2013-05-16 11:35:00,79.0,71.2,29.80,SSW,201,0.0,9.0,77,0.00,,SKC,0.00,VWS V14.01,2013-05-16 16:35:00,
2013-05-16 11:40:00,79.9,71.3,29.80,SSE,162,0.0,9.0,75,0.00,,SKC,0.00,VWS V14.01,2013-05-16 16:40:00,
2013-05-16 11:45:00,80.7,71.2,29.80,SSW,208,3.0,10.0,73,0.00,,SKC,0.00,VWS V14.01,2013-05-16 16:45:00,
2013-05-16 11:50:00,80.8,70.9,29.80,South,188,0.0,10.0,72,0.00,,SKC,0.00,VWS V14.01,2013-05-16 16:50:00,
2013-05-16 11:55:00,81.1,71.6,29.79,South,169,0.0,10.0,73,0.00,,SKC,0.00,VWS V14.01,2013-05-16 16:55:00,
2013-05-16 12:00:00,81.5,71.2,29.79,SSE,165,0.0,9.0,71,0.00,,SKC,0.00,VWS V14.01,2013-05-16 17:00:00,
2013-05-16 12:05:00,82.0,71.7,29.79,SSE,168,1.0,11.0,71,0.00,,SKC,0.00,VWS V14.01,2013-05-16 17:05:00,
2013-05-16 12:10:00,82.4,71.6,29.79,South,185,0.0,10.0,70,0.00,,SKC,0.00,VWS V14.01,2013-05-16 17:10:00,
2013-05-16 12:15:00,82.7,71.5,29.79,SSW,197,0.0,10.0,69,0.00,,SKC,0.00,VWS V14.01,2013-05-16 17:15:00,
2013-05-16 12:20:00,83.0,71.8,29.78,SSW,207,0.0,12.0,69,0.00,,SKC,0.00,VWS V14.01,2013-05-16 17:20:00,
2013-05-16 12:25:00,83.3,72.1,29.78,SW,216,0.0,12.0,69,0.00,,SKC,0.00,VWS V14.01,2013-05-16 17:25:00,
2013-05-16 12:30:00,83.7,71.6,29.78,SSW,209,1.0,12.0,67,0.00,,SKC,0.00,VWS V14.01,2013-05-16 17:30:00,
2013-05-16 12:35:00,84.1,72.0,29.78,SSE,159,3.0,12.0,67,0.00,,SKC,0.00,VWS V14.01,2013-05-16 17:35:00,
2013-05-16 12:40:00,84.7,72.5,29.78,SSW,198,0.0,11.0,67,0.00,,SKC,0.00,VWS V14.01,2013-05-16 17:40:00,
2013-05-16 12:45:00,85.1,72.9,29.77,South,172,0.0,11.0,67,0.00,,SKC,0.00,VWS V14.01,2013-05-16 17:45:00,
2013-05-16 12:50:00,85.6,72.5,29.78,SSW,211,5.0,8.0,65,0.00,,SKC,0.00,VWS V14.01,2013-05-16 17:50:00,
2013-05-16 12:55:00,85.8,72.2,29.77,SSW,212,6.0,12.0,64,0.00,,SKC,0.00,VWS V14.01,2013-05-16 17:55:00,
2013-05-16 13:00:00,86.0,72.4,29.77,SSE,161,7.0,12.0,64,0.00,,SKC,0.00,VWS V14.01,2013-05-16 18:00:00,
2013-05-16 13:05:00,86.2,72.6,29.76,SW,214,0.0,12.0,64,0.00,,SKC,0.00,VWS V14.01,2013-05-16 18:05:00,
2013-05-16 13:10:00,86.6,73.0,29.76,SW,235,4.0,11.0,64,0.00,,SKC,0.00,VWS V14.01,2013-05-16 18:10:00,
2013-05-16 13:15:00,86.8,72.7,29.76,SSE,158,11.0,14.0,63,0.00,,SKC,0.00,VWS V14.01,2013-05-16 18:15:00,
2013-05-16 13:20:00,87.0,72.4,29.76,South,185,6.0,7.0,62,0.00,,SKC,0.00,VWS V14.01,2013-05-16 18:20:00,
2013-05-16 13:25:00,87.1,72.5,29.75,SSE,165,0.0,11.0,62,0.00,,SKC,0.00,VWS V14.01,2013-05-16 18:25:00,
2013-05-16 13:30:00,87.3,72.7,29.75,SSW,208,1.0,10.0,62,0.00,,SKC,0.00,VWS V14.01,2013-05-16 18:30:00,
2013-05-16 13:35:00,87.5,72.4,29.75,SSW,210,7.0,13.0,61,0.00,,SKC,0.00,VWS V14.01,2013-05-16 18:35:00,
2013-05-16 13:40:00,87.7,72.6,29.76,SW,226,4.0,10.0,61,0.00,,SKC,0.00,VWS V14.01,2013-05-16 18:40:00,
2013-05-16 13:45:00,87.6,73.0,29.75,South,185,3.0,10.0,62,0.00,,SKC,0.00,VWS V14.01,2013-05-16 18:45:00,
2013-05-16 13:50:00,88.0,72.9,29.75,SSE,153,6.0,11.0,61,0.00,,SKC,0.00,VWS V14.01,2013-05-16 18:50:00,
2013-05-16 13:55:00,88.2,73.1,29.75,South,176,0.0,11.0,61,0.00,,SKC,0.00,VWS V14.01,2013-05-16 18:55:00,
2013-05-16 14:00:00,88.4,72.8,29.75,SSE,163,1.0,9.0,60,0.00,,SKC,0.00,VWS V14.01,2013-05-16 19:00:00,
2013-05-16 14:05:00,88.6,72.4,29.74,SSE,165,1.0,9.0,59,0.00,,SKC,0.00,VWS V14.01,2013-05-16 19:05:00,
2013-05-16 14:10:00,89.0,72.8,29.74,South,184,4.0,15.0,59,0.00,,SKC,0.00,VWS V14.01,2013-05-16 19:10:00,
2013-05-16 14:15:00,89.2,73.5,29.74,South,177,7.0,15.0,60,0.00,,SKC,0.00,VWS V14.01,2013-05-16 19:15:00,
2013-05-16 14:19:00,89.6,73.4,29.74,SSE,165,0.0,12.0,59,0.00,,SKC,0.00,VWS V14.01,2013-05-16 19:19:00,
2013-05-16 14:20:00,89.3,73.6,29.74,South,182,0.0,15.0,60,0.00,,SKC,0.00,VWS V14.01,2013-05-16 19:20:00,
2013-05-16 14:24:00,90.0,73.2,29.74,SSE,157,4.0,12.0,58,0.00,,SKC,0.00,VWS V14.01,2013-05-16 19:24:00,
2013-05-16 14:30:00,90.3,73.0,29.74,South,186,0.0,6.0,57,0.00,,SKC,0.00,VWS V14.01,2013-05-16 19:30:00,
2013-05-16 14:34:00,90.6,72.8,29.74,South,183,0.0,8.0,56,0.00,,SKC,0.00,VWS V14.01,2013-05-16 19:34:00,
2013-05-16 14:39:00,90.9,73.0,29.74,SW,215,3.0,11.0,56,0.00,,SKC,0.00,VWS V14.01,2013-05-16 19:39:00,
2013-05-16 14:40:00,90.8,72.9,29.74,SSW,203,0.0,9.0,56,0.00,,SKC,0.00,VWS V14.01,2013-05-16 19:40:00,
2013-05-16 14:44:00,90.8,72.4,29.74,SW,229,1.0,11.0,55,0.00,,SKC,0.00,VWS V14.01,2013-05-16 19:44:00,
2013-05-16 14:49:00,90.9,73.0,29.74,South,170,4.0,9.0,56,0.00,,SKC,0.00,VWS V14.01,2013-05-16 19:49:00,
2013-05-16 14:50:00,90.8,72.9,29.73,SW,229,1.0,11.0,56,0.00,,SKC,0.00,VWS V14.01,2013-05-16 19:50:00,
2013-05-16 14:54:00,91.2,72.8,29.74,SSW,208,0.0,11.0,55,0.00,,SKC,0.00,VWS V14.01,2013-05-16 19:54:00,
2013-05-16 14:59:00,91.5,73.6,29.73,SW,225,2.0,9.0,56,0.00,,SKC,0.00,VWS V14.01,2013-05-16 19:59:00,
2013-05-16 15:00:00,91.3,72.9,29.74,SW,216,0.0,11.0,55,0.00,,SKC,0.00,VWS V14.01,2013-05-16 20:00:00,
2013-05-16 15:04:00,92.0,73.5,29.73,South,186,3.0,9.0,55,0.00,,SKC,0.00,VWS V14.01,2013-05-16 20:04:00,
2013-05-16 15:09:00,92.4,72.8,29.73,SE,144,0.0,7.0,53,0.00,,SKC,0.00,VWS V14.01,2013-05-16 20:09:00,
2013-05-16 15:10:00,92.1,73.1,29.73,SSE,151,1.0,9.0,54,0.00,,SKC,0.00,VWS V14.01,2013-05-16 20:10:00,
2013-05-16 15:14:00,92.7,72.5,29.73,SW,227,2.0,10.0,52,0.00,,SKC,0.00,VWS V14.01,2013-05-16 20:14:00,
2013-05-16 15:19:00,92.6,71.8,29.72,SSE,155,6.0,12.0,51,0.00,,SKC,0.00,VWS V14.01,2013-05-16 20:19:00,
2013-05-16 15:20:00,92.7,73.1,29.73,SW,227,0.0,10.0,53,0.00,,SKC,0.00,VWS V14.01,2013-05-16 20:20:00,
2013-05-16 15:24:00,92.6,73.0,29.72,SSW,207,0.0,12.0,53,0.00,,SKC,0.00,VWS V14.01,2013-05-16 20:24:00,
2013-05-16 15:29:00,92.9,72.7,29.72,SSE,156,0.0,8.0,52,0.00,,SKC,0.00,VWS V14.01,2013-05-16 20:29:00,
2013-05-16 15:30:00,92.8,73.2,29.72,SSW,193,0.0,12.0,53,0.00,,SKC,0.00,VWS V14.01,2013-05-16 20:30:00,
2013-05-16 15:34:00,93.1,71.7,29.72,South,179,0.0,10.0,50,0.00,,SKC,0.00,VWS V14.01,2013-05-16 20:34:00,
2013-05-16 15:39:00,93.4,72.6,29.72,SW,232,0.0,6.0,51,0.00,,SKC,0.00,VWS V14.01,2013-05-16 20:39:00,
2013-05-16 15:40:00,93.2,72.4,29.71,West,272,1.0,10.0,51,0.00,,SKC,0.00,VWS V14.01,2013-05-16 20:40:00,
2013-05-16 15:44:00,93.6,72.8,29.71,SSW,205,5.0,9.0,51,0.00,,SKC,0.00,VWS V14.01,2013-05-16 20:44:00,
2013-05-16 15:49:00,93.8,72.9,29.71,SSE,160,0.0,8.0,51,0.00,,SKC,0.00,VWS V14.01,2013-05-16 20:49:00,
2013-05-16 15:50:00,93.7,72.8,29.71,SSW,200,0.0,9.0,51,0.00,,SKC,0.00,VWS V14.01,2013-05-16 20:50:00,
2013-05-16 15:54:00,94.1,72.6,29.70,SW,225,0.0,8.0,50,0.00,,SKC,0.00,VWS V14.01,2013-05-16 20:54:00,
2013-05-16 15:59:00,94.2,72.1,29.70,SSE,167,0.0,9.0,49,0.00,,SKC,0.00,VWS V14.01,2013-05-16 20:59:00,
2013-05-16 16:00:00,94.2,72.7,29.71,SW,219,1.0,8.0,50,0.00,,SKC,0.00,VWS V14.01,2013-05-16 21:00:00,
2013-05-16 16:04:00,94.6,71.9,29.70,South,191,1.0,9.0,48,0.00,,SKC,0.00,VWS V14.01,2013-05-16 21:04:00,
2013-05-16 16:09:00,94.7,72.6,29.70,South,186,0.0,12.0,49,0.00,,SKC,0.00,VWS V14.01,2013-05-16 21:09:00,
2013-05-16 16:10:00,94.6,71.9,29.70,SSW,204,0.0,9.0,48,0.00,,SKC,0.00,VWS V14.01,2013-05-16 21:10:00,
2013-05-16 16:14:00,94.6,71.9,29.70,SW,221,0.0,12.0,48,0.00,,SKC,0.00,VWS V14.01,2013-05-16 21:14:00,
2013-05-16 16:19:00,94.6,71.9,29.69,South,178,0.0,7.0,48,0.00,,SKC,0.00,VWS V14.01,2013-05-16 21:19:00,
2013-05-16 16:20:00,94.5,72.4,29.70,SW,221,0.0,12.0,49,0.00,,SKC,0.00,VWS V14.01,2013-05-16 21:20:00,
2013-05-16 16:24:00,94.9,71.5,29.69,SSE,154,1.0,9.0,47,0.00,,SKC,0.00,VWS V14.01,2013-05-16 21:24:00,
2013-05-16 16:29:00,94.9,71.5,29.69,SW,215,1.0,8.0,47,0.00,,SKC,0.00,VWS V14.01,2013-05-16 21:29:00,
2013-05-16 16:30:00,94.9,71.5,29.69,SSE,158,0.0,9.0,47,0.00,,SKC,0.00,VWS V14.01,2013-05-16 21:30:00,
2013-05-16 16:34:00,95.2,71.8,29.69,South,180,0.0,8.0,47,0.00,,SKC,0.00,VWS V14.01,2013-05-16 21:34:00,
2013-05-16 16:39:00,95.5,71.4,29.69,SW,215,1.0,12.0,46,0.00,,SKC,0.00,VWS V14.01,2013-05-16 21:39:00,
2013-05-16 16:40:00,95.3,71.3,29.69,South,180,0.0,8.0,46,0.00,,SKC,0.00,VWS V14.01,2013-05-16 21:40:00,
2013-05-16 16:44:00,95.6,71.5,29.68,SSW,204,0.0,12.0,46,0.00,,SKC,0.00,VWS V14.01,2013-05-16 21:44:00,
2013-05-16 16:49:00,95.7,71.6,29.68,SW,218,0.0,8.0,46,0.00,,SKC,0.00,VWS V14.01,2013-05-16 21:49:00,
2013-05-16 16:50:00,95.6,71.5,29.69,SSW,202,1.0,12.0,46,0.00,,SKC,0.00,VWS V14.01,2013-05-16 21:50:00,
2013-05-16 16:54:00,95.8,71.1,29.68,South,190,5.0,8.0,45,0.00,,SKC,0.00,VWS V14.01,2013-05-16 21:54:00,
2013-05-16 16:59:00,95.9,71.2,29.68,SSW,206,0.0,7.0,45,0.00,,SKC,0.00,VWS V14.01,2013-05-16 21:59:00,
2013-05-16 17:00:00,95.9,71.2,29.68,SSW,210,0.0,9.0,45,0.00,,SKC,0.00,VWS V14.01,2013-05-16 22:00:00,
2013-05-16 17:04:00,95.9,71.2,29.68,SSW,209,0.0,9.0,45,0.00,,SKC,0.00,VWS V14.01,2013-05-16 22:04:00,
2013-05-16 17:09:00,96.2,70.8,29.68,SSW,207,0.0,1.0,44,0.00,,SKC,0.00,VWS V14.01,2013-05-16 22:09:00,
2013-05-16 17:10:00,96.0,71.2,29.68,SSW,208,0.0,9.0,45,0.00,,SKC,0.00,VWS V14.01,2013-05-16 22:10:00,
2013-05-16 17:14:00,96.4,70.9,29.68,South,182,0.0,7.0,44,0.00,,SKC,0.00,VWS V14.01,2013-05-16 22:14:00,
2013-05-16 17:19:00,96.5,71.0,29.68,South,183,0.0,3.0,44,0.00,,SKC,0.00,VWS V14.01,2013-05-16 22:19:00,
2013-05-16 17:20:00,96.5,71.0,29.68,South,183,1.0,7.0,44,0.00,,SKC,0.00,VWS V14.01,2013-05-16 22:20:00,
2013-05-16 17:24:00,96.6,71.1,29.67,SSW,196,7.0,8.0,44,0.00,,SKC,0.00,VWS V14.01,2013-05-16 22:24:00,
2013-05-16 17:29:00,96.4,70.9,29.67,SSW,212,0.0,7.0,44,0.00,,SKC,0.00,VWS V14.01,2013-05-16 22:29:00,
2013-05-16 17:30:00,96.5,71.0,29.67,SW,223,4.0,8.0,44,0.00,,SKC,0.00,VWS V14.01,2013-05-16 22:30:00,
2013-05-16 17:34:00,96.2,70.8,29.67,SSW,205,0.0,7.0,44,0.00,,SKC,0.00,VWS V14.01,2013-05-16 22:34:00,
2013-05-16 17:39:00,96.1,70.7,29.67,South,180,3.0,8.0,44,0.00,,SKC,0.00,VWS V14.01,2013-05-16 22:39:00,
2013-05-16 17:40:00,96.2,70.8,29.67,SSE,162,3.0,8.0,44,0.00,,SKC,0.00,VWS V14.01,2013-05-16 22:40:00,
2013-05-16 17:44:00,95.9,70.5,29.67,South,185,4.0,8.0,44,0.00,,SKC,0.00,VWS V14.01,2013-05-16 22:44:00,
2013-05-16 17:49:00,95.7,71.0,29.67,SSW,196,0.0,9.0,45,0.00,,SKC,0.00,VWS V14.01,2013-05-16 22:49:00,
2013-05-16 17:50:00,95.8,70.4,29.67,South,185,0.0,8.0,44,0.00,,SKC,0.00,VWS V14.01,2013-05-16 22:50:00,
2013-05-16 17:54:00,95.6,70.9,29.67,SSE,162,0.0,10.0,45,0.00,,SKC,0.00,VWS V14.01,2013-05-16 22:54:00,
2013-05-16 17:59:00,95.6,70.9,29.66,SSE,166,2.0,6.0,45,0.00,,SKC,0.00,VWS V14.01,2013-05-16 22:59:00,
2013-05-16 18:00:00,95.6,70.9,29.67,SSE,165,0.0,10.0,45,0.00,,SKC,0.00,VWS V14.01,2013-05-16 23:00:00,
2013-05-16 18:04:00,95.6,70.9,29.66,SSE,166,0.0,6.0,45,0.00,,SKC,0.00,VWS V14.01,2013-05-16 23:04:00,
2013-05-16 18:09:00,95.6,70.9,29.66,SSE,159,0.0,6.0,45,0.00,,SKC,0.00,VWS V14.01,2013-05-16 23:09:00,
2013-05-16 18:10:00,95.6,70.9,29.66,SSE,157,0.0,8.0,45,0.00,,SKC,0.00,VWS V14.01,2013-05-16 23:10:00,
2013-05-16 18:14:00,95.5,70.8,29.66,SSE,159,1.0,6.0,45,0.00,,SKC,0.00,VWS V14.01,2013-05-16 23:14:00,
2013-05-16 18:19:00,95.4,71.3,29.66,SSE,160,0.0,3.0,46,0.00,,SKC,0.00,VWS V14.01,2013-05-16 23:19:00,
2013-05-16 18:20:00,95.5,70.8,29.66,SSE,159,0.0,6.0,45,0.00,,SKC,0.00,VWS V14.01,2013-05-16 23:20:00,
2013-05-16 18:24:00,95.3,71.9,29.66,SSE,158,0.0,6.0,47,0.00,,SKC,0.00,VWS V14.01,2013-05-16 23:24:00,
2013-05-16 18:29:00,95.1,72.3,29.66,SSE,158,3.0,6.0,48,0.00,,SKC,0.00,VWS V14.01,2013-05-16 23:29:00,
2013-05-16 18:30:00,95.2,71.8,29.66,SSE,159,0.0,6.0,47,0.00,,SKC,0.00,VWS V14.01,2013-05-16 23:30:00,
2013-05-16 18:34:00,94.8,71.4,29.66,SSE,150,0.0,6.0,47,0.00,,SKC,0.00,VWS V14.01,2013-05-16 23:34:00,
2013-05-16 18:39:00,94.4,72.9,29.66,SE,126,8.0,10.0,50,0.00,,SKC,0.00,VWS V14.01,2013-05-16 23:39:00,
2013-05-16 18:40:00,94.6,71.9,29.66,SSE,150,0.0,6.0,48,0.00,,SKC,0.00,VWS V14.01,2013-05-16 23:40:00,
2013-05-16 18:44:00,93.5,74.9,29.66,SE,130,4.0,12.0,55,0.00,,SKC,0.00,VWS V14.01,2013-05-16 23:44:00,
2013-05-16 18:49:00,92.5,75.1,29.67,SE,140,1.0,5.0,57,0.00,,SKC,0.00,VWS V14.01,2013-05-16 23:49:00,
2013-05-16 18:50:00,93.1,74.6,29.66,SE,135,0.0,12.0,55,0.00,,SKC,0.00,VWS V14.01,2013-05-16 23:50:00,
2013-05-16 18:54:00,91.4,74.6,29.67,SE,143,0.0,12.0,58,0.00,,SKC,0.00,VWS V14.01,2013-05-16 23:54:00,
2013-05-16 18:59:00,90.7,74.9,29.67,ESE,119,9.0,13.0,60,0.00,,SKC,0.00,VWS V14.01,2013-05-16 23:59:00,
2013-05-16 19:00:00,91.1,74.8,29.67,SSE,155,0.0,12.0,59,0.00,,SKC,0.00,VWS V14.01,2013-05-17 00:00:00,
2013-05-16 19:04:00,90.2,74.4,29.67,ESE,112,4.0,13.0,60,0.00,,SKC,0.00,VWS V14.01,2013-05-17 00:04:00,
2013-05-16 19:09:00,89.8,74.6,29.67,SE,134,0.0,8.0,61,0.00,,SKC,0.00,VWS V14.01,2013-05-17 00:09:00,
2013-05-16 19:10:00,90.1,74.8,29.67,ESE,109,0.0,13.0,61,0.00,,SKC,0.00,VWS V14.01,2013-05-17 00:10:00,
2013-05-16 19:14:00,89.4,74.7,29.67,ESE,111,0.0,13.0,62,0.00,,SKC,0.00,VWS V14.01,2013-05-17 00:14:00,
2013-05-16 19:19:00,89.0,74.8,29.68,SE,129,0.0,14.0,63,0.00,,SKC,0.00,VWS V14.01,2013-05-17 00:19:00,
2013-05-16 19:20:00,89.3,75.1,29.67,ESE,111,0.0,13.0,63,0.00,,SKC,0.00,VWS V14.01,2013-05-17 00:20:00,
2013-05-16 19:24:00,88.5,74.8,29.68,ESE,119,0.0,14.0,64,0.00,,SKC,0.00,VWS V14.01,2013-05-17 00:24:00,
2013-05-16 19:29:00,88.1,74.9,29.68,ESE,123,0.0,9.0,65,0.00,,SKC,0.00,VWS V14.01,2013-05-17 00:29:00,
2013-05-16 19:30:00,88.4,74.7,29.68,ESE,121,0.0,14.0,64,0.00,,SKC,0.00,VWS V14.01,2013-05-17 00:30:00,
2013-05-16 19:34:00,87.7,74.9,29.68,ESE,109,0.0,11.0,66,0.00,,SKC,0.00,VWS V14.01,2013-05-17 00:34:00,
2013-05-16 19:39:00,87.2,74.5,29.68,ESE,117,3.0,10.0,66,0.00,,SKC,0.00,VWS V14.01,2013-05-17 00:39:00,
2013-05-16 19:40:00,87.5,74.8,29.68,SSE,151,3.0,11.0,66,0.00,,SKC,0.00,VWS V14.01,2013-05-17 00:40:00,
2013-05-16 19:44:00,86.7,74.4,29.68,SSE,147,4.0,11.0,67,0.00,,SKC,0.00,VWS V14.01,2013-05-17 00:44:00,
2013-05-16 19:49:00,86.3,74.5,29.68,SE,130,0.0,7.0,68,0.00,,SKC,0.00,VWS V14.01,2013-05-17 00:49:00,
2013-05-16 19:50:00,86.5,74.7,29.68,SE,136,0.0,11.0,68,0.00,,SKC,0.00,VWS V14.01,2013-05-17 00:50:00,
2013-05-16 19:54:00,85.8,74.5,29.68,SE,140,2.0,9.0,69,0.00,,SKC,0.00,VWS V14.01,2013-05-17 00:54:00,
2013-05-16 19:59:00,85.4,74.5,29.69,ESE,123,0.0,10.0,70,0.00,,SKC,0.00,VWS V14.01,2013-05-17 00:59:00,
2013-05-16 20:00:00,85.6,74.3,29.69,SE,126,2.0,9.0,69,0.00,,SKC,0.00,VWS V14.01,2013-05-17 01:00:00,
2013-05-16 20:04:00,85.1,74.2,29.69,ESE,113,9.0,10.0,70,0.00,,SKC,0.00,VWS V14.01,2013-05-17 01:04:00,
2013-05-16 20:09:00,84.7,74.3,29.69,ESE,117,0.0,12.0,71,0.00,,SKC,0.00,VWS V14.01,2013-05-17 01:09:00,
2013-05-16 20:10:00,84.9,74.4,29.69,ESE,114,2.0,10.0,71,0.00,,SKC,0.00,VWS V14.01,2013-05-17 01:10:00,
2013-05-16 20:14:00,84.4,74.4,29.69,ESE,113,0.0,12.0,72,0.00,,SKC,0.00,VWS V14.01,2013-05-17 01:14:00,
2013-05-16 20:19:00,84.0,74.0,29.69,ESE,116,1.0,11.0,72,0.00,,SKC,0.00,VWS V14.01,2013-05-17 01:19:00,
2013-05-16 20:20:00,84.2,74.2,29.69,ESE,113,9.0,12.0,72,0.00,,SKC,0.00,VWS V14.01,2013-05-17 01:20:00,
2013-05-16 20:24:00,83.6,74.0,29.70,ESE,108,0.0,11.0,73,0.00,,SKC,0.00,VWS V14.01,2013-05-17 01:24:00,
2013-05-16 20:29:00,83.3,74.2,29.70,ESE,110,0.0,8.0,74,0.00,,SKC,0.00,VWS V14.01,2013-05-17 01:29:00,
2013-05-16 20:30:00,83.5,73.9,29.70,ESE,109,0.0,11.0,73,0.00,,SKC,0.00,VWS V14.01,2013-05-17 01:30:00,
2013-05-16 20:34:00,82.9,73.8,29.70,ESE,115,0.0,8.0,74,0.00,,SKC,0.00,VWS V14.01,2013-05-17 01:34:00,
2013-05-16 20:39:00,82.7,74.0,29.70,ESE,116,0.0,5.0,75,0.00,,SKC,0.00,VWS V14.01,2013-05-17 01:39:00,
2013-05-16 20:40:00,82.8,74.1,29.70,ESE,116,0.0,8.0,75,0.00,,SKC,0.00,VWS V14.01,2013-05-17 01:40:00,
2013-05-16 20:44:00,82.4,73.7,29.70,ESE,115,4.0,7.0,75,0.00,,SKC,0.00,VWS V14.01,2013-05-17 01:44:00,
2013-05-16 20:49:00,82.1,73.8,29.71,ESE,115,5.0,5.0,76,0.00,,SKC,0.00,VWS V14.01,2013-05-17 01:49:00,
2013-05-16 20:50:00,82.3,74.0,29.71,ESE,114,0.0,7.0,76,0.00,,SKC,0.00,VWS V14.01,2013-05-17 01:50:00,
2013-05-16 20:54:00,81.8,73.9,29.71,ESE,115,7.0,9.0,77,0.00,,SKC,0.00,VWS V14.01,2013-05-17 01:54:00,
2013-05-16 20:59:00,81.5,73.6,29.71,ESE,115,0.0,10.0,77,0.00,,SKC,0.00,VWS V14.01,2013-05-17 01:59:00,
2013-05-16 21:00:00,81.7,73.8,29.71,ESE,114,0.0,9.0,77,0.00,,SKC,0.00,VWS V14.01,2013-05-17 02:00:00,
2013-05-16 21:04:00,81.2,73.7,29.71,ESE,111,0.0,10.0,78,0.00,,SKC,0.00,VWS V14.01,2013-05-17 02:04:00,
2013-05-16 21:09:00,80.9,73.4,29.72,ESE,114,0.0,8.0,78,0.00,,SKC,0.00,VWS V14.01,2013-05-17 02:09:00,
2013-05-16 21:10:00,81.1,73.6,29.72,ESE,113,0.0,10.0,78,0.00,,SKC,0.00,VWS V14.01,2013-05-17 02:10:00,
2013-05-16 21:14:00,80.5,73.4,29.72,ESE,115,0.0,8.0,79,0.00,,SKC,0.00,VWS V14.01,2013-05-17 02:14:00,
2013-05-16 21:19:00,80.2,73.5,29.72,ESE,112,0.0,8.0,80,0.00,,SKC,0.00,VWS V14.01,2013-05-17 02:19:00,
2013-05-16 21:20:00,80.3,73.2,29.72,ESE,111,0.0,8.0,79,0.00,,SKC,0.00,VWS V14.01,2013-05-17 02:20:00,
2013-05-16 21:24:00,79.9,73.2,29.72,ESE,112,3.0,9.0,80,0.00,,SKC,0.00,VWS V14.01,2013-05-17 02:24:00,
2013-05-16 21:29:00,79.6,73.3,29.72,ESE,113,0.0,9.0,81,0.00,,SKC,0.00,VWS V14.01,2013-05-17 02:29:00,
2013-05-16 21:30:00,79.8,73.1,29.72,ESE,115,7.0,9.0,80,0.00,,SKC,0.00,VWS V14.01,2013-05-17 02:30:00,
2013-05-16 21:34:00,79.4,73.1,29.73,ESE,113,0.0,9.0,81,0.00,,SKC,0.00,VWS V14.01,2013-05-17 02:34:00,
2013-05-16 21:39:00,79.2,73.2,29.73,SE,124,3.0,7.0,82,0.00,,SKC,0.00,VWS V14.01,2013-05-17 02:39:00,
2013-05-16 21:40:00,79.3,73.0,29.73,ESE,113,0.0,9.0,81,0.00,,SKC,0.00,VWS V14.01,2013-05-17 02:40:00,
2013-05-16 21:44:00,79.0,73.0,29.73,SE,124,0.0,7.0,82,0.00,,SKC,0.00,VWS V14.01,2013-05-17 02:44:00,
2013-05-16 21:49:00,78.8,72.8,29.73,ESE,121,0.0,8.0,82,0.00,,SKC,0.00,VWS V14.01,2013-05-17 02:49:00,
2013-05-16 21:50:00,78.9,72.9,29.73,SE,124,0.0,7.0,82,0.00,,SKC,0.00,VWS V14.01,2013-05-17 02:50:00,
2013-05-16 21:54:00,78.6,73.0,29.73,SE,124,4.0,10.0,83,0.00,,SKC,0.00,VWS V14.01,2013-05-17 02:54:00,
2013-05-16 21:59:00,78.4,72.8,29.73,ESE,122,0.0,2.0,83,0.00,,SKC,0.00,VWS V14.01,2013-05-17 02:59:00,
2013-05-16 22:00:00,78.5,72.9,29.73,ESE,122,0.0,10.0,83,0.00,,SKC,0.00,VWS V14.01,2013-05-17 03:00:00,
2013-05-16 22:04:00,78.2,72.6,29.74,SE,124,0.0,6.0,83,0.00,,SKC,0.00,VWS V14.01,2013-05-17 03:04:00,
2013-05-16 22:09:00,78.0,72.8,29.74,SE,124,0.0,3.0,84,0.00,,SKC,0.00,VWS V14.01,2013-05-17 03:09:00,
2013-05-16 22:10:00,78.1,72.9,29.73,SE,124,0.0,6.0,84,0.00,,SKC,0.00,VWS V14.01,2013-05-17 03:10:00,
2013-05-16 22:14:00,77.8,72.6,29.74,SE,124,0.0,9.0,84,0.00,,SKC,0.00,VWS V14.01,2013-05-17 03:14:00,
2013-05-16 22:19:00,77.6,72.7,29.74,ESE,123,0.0,1.0,85,0.00,,SKC,0.00,VWS V14.01,2013-05-17 03:19:00,
2013-05-16 22:20:00,77.7,72.5,29.74,ESE,123,0.0,9.0,84,0.00,,SKC,0.00,VWS V14.01,2013-05-17 03:20:00,
2013-05-16 22:24:00,77.4,72.5,29.74,SE,124,0.0,8.0,85,0.00,,SKC,0.00,VWS V14.01,2013-05-17 03:24:00,
2013-05-16 22:29:00,77.3,72.4,29.75,SE,126,0.0,6.0,85,0.00,,SKC,0.00,VWS V14.01,2013-05-17 03:29:00,
2013-05-16 22:30:00,77.4,72.5,29.74,SE,124,4.0,8.0,85,0.00,,SKC,0.00,VWS V14.01,2013-05-17 03:30:00,
2013-05-16 22:34:00,77.1,72.6,29.75,SE,126,0.0,6.0,86,0.00,,SKC,0.00,VWS V14.01,2013-05-17 03:34:00,
2013-05-16 22:39:00,77.0,72.5,29.75,SE,129,0.0,0.0,86,0.00,,SKC,0.00,VWS V14.01,2013-05-17 03:39:00,
2013-05-16 22:40:00,77.1,72.6,29.75,SE,129,0.0,7.0,86,0.00,,SKC,0.00,VWS V14.01,2013-05-17 03:40:00,
2013-05-16 22:44:00,76.9,72.4,29.75,SE,127,0.0,6.0,86,0.00,,SKC,0.00,VWS V14.01,2013-05-17 03:44:00,
2013-05-16 22:49:00,76.8,72.6,29.75,SE,129,0.0,5.0,87,0.00,,SKC,0.00,VWS V14.01,2013-05-17 03:49:00,
2013-05-16 22:50:00,76.8,72.3,29.75,SE,129,0.0,6.0,86,0.00,,SKC,0.00,VWS V14.01,2013-05-17 03:50:00,
2013-05-16 22:54:00,76.7,72.5,29.75,SE,128,0.0,5.0,87,0.00,,SKC,0.00,VWS V14.01,2013-05-17 03:54:00,
2013-05-16 22:59:00,76.6,72.4,29.75,SE,128,0.0,6.0,87,0.00,,SKC,0.00,VWS V14.01,2013-05-17 03:59:00,
2013-05-16 23:00:00,76.7,72.5,29.75,SE,130,3.0,7.0,87,0.00,,SKC,0.00,VWS V14.01,2013-05-17 04:00:00,
2013-05-16 23:01:00,76.6,72.4,29.75,SE,128,0.0,6.0,87,0.00,,SKC,0.00,VWS V14.01,2013-05-17 04:01:00,
2013-05-16 23:06:00,76.5,72.3,29.75,SE,128,0.0,6.0,87,0.00,,SKC,0.00,VWS V14.01,2013-05-17 04:06:00,
2013-05-16 23:10:00,76.6,72.4,29.75,SE,128,0.0,6.0,87,0.00,,SKC,0.00,VWS V14.01,2013-05-17 04:10:00,
2013-05-16 23:11:00,76.5,72.3,29.75,SE,127,0.0,7.0,87,0.00,,SKC,0.00,VWS V14.01,2013-05-17 04:11:00,
2013-05-16 23:16:00,76.5,72.7,29.75,SE,126,0.0,7.0,88,0.00,,SKC,0.00,VWS V14.01,2013-05-17 04:16:00,
2013-05-16 23:20:00,76.5,72.7,29.75,SE,126,2.0,7.0,88,0.00,,SKC,0.00,VWS V14.01,2013-05-17 04:20:00,
2013-05-16 23:21:00,76.4,72.6,29.75,SE,126,0.0,5.0,88,0.00,,SKC,0.00,VWS V14.01,2013-05-17 04:21:00,
2013-05-16 23:26:00,76.4,72.6,29.76,SE,126,5.0,5.0,88,0.00,,SKC,0.00,VWS V14.01,2013-05-17 04:26:00,
2013-05-16 23:30:00,76.4,72.6,29.76,SE,126,4.0,5.0,88,0.00,,SKC,0.00,VWS V14.01,2013-05-17 04:30:00,
2013-05-16 23:31:00,76.3,72.5,29.76,SE,129,3.0,6.0,88,0.00,,SKC,0.00,VWS V14.01,2013-05-17 04:31:00,
2013-05-16 23:36:00,76.2,72.4,29.76,SE,130,0.0,8.0,88,0.00,,SKC,0.00,VWS V14.01,2013-05-17 04:36:00,
2013-05-16 23:40:00,76.3,72.5,29.76,SE,130,0.0,8.0,88,0.00,,SKC,0.00,VWS V14.01,2013-05-17 04:40:00,
2013-05-16 23:41:00,76.2,72.4,29.76,SE,130,0.0,3.0,88,0.00,,SKC,0.00,VWS V14.01,2013-05-17 04:41:00,
2013-05-16 23:46:00,76.2,72.4,29.76,SE,140,6.0,9.0,88,0.00,,SKC,0.00,VWS V14.01,2013-05-17 04:46:00,
2013-05-16 23:50:00,76.2,72.4,29.76,SE,140,0.0,9.0,88,0.00,,SKC,0.00,VWS V14.01,2013-05-17 04:50:00,
2013-05-16 23:51:00,76.1,72.3,29.76,SE,135,0.0,7.0,88,0.00,,SKC,0.00,VWS V14.01,2013-05-17 04:51:00,
2013-05-16 23:56:00,76.1,72.3,29.76,SE,135,0.0,7.0,88,0.00,,SKC,0.00,VWS V14.01,2013-05-17 04:56:00,